Lapse_Rate
5.5 5.3 5.1 5.1 5.2 5.5 5.5 5.4 5.3 5.2 5.2 5.4 5.4 5.1 5.3 5.2 5.3 5.4 5.4 5.4 5.5 5.6 5.7 5.9 6.1 6.1 6.3 6.3 6.3 6.3 6.2 6.1 6.1 6.2 6.1 6.0 6.0 6.0 6.0 6.0 5.9 6.1 6.2
5.6 5.3 5.2 5.3 5.4 5.7 5.4 5.3 5.4 5.2 5.3 5.3 5.3 5.3 5.4 5.4 5.5 5.4 5.5 5.4 5.5 5.6 5.7 5.9 5.9 6.0 6.1 6.0 5.9 6.1 6.2 6.1 6.0 6.0 5.7 5.9 6.0 6.0 6.0 6.0 5.9 6.0 6.2
5.7 5.6 5.4 5.4 5.5 5.6 5.5 5.3 5.3 5.3 5.2 5.3 5.2 5.4 5.6 5.6 5.5 5.5 5.6 5.6 5.6 5.7 5.6 5.7 5.9 5.8 5.9 5.9 6.0 6.1 6.1 6.0 6.2 6.3 6.1 5.9 5.9 6.0 6.0 6.0 6.0 5.9 6.2
5.7 5.6 5.5 5.5 5.6 5.5 5.6 5.5 5.4 5.3 5.2 5.3 5.4 5.6 5.7 5.6 5.6 5.8 5.8 5.7 5.6 5.7 5.7 5.7 5.8 5.9 5.8 5.8 5.8 5.7 5.7 5.9 6.0 5.8 6.2 6.1 5.5 6.0 6.1 6.0 6.0 6.0 6.2
5.7 5.4 5.2 5.5 5.6 5.4 5.5 5.5 5.5 5.2 5.3 5.3 5.4 5.7 5.7 5.6 5.6 5.8 5.8 5.7 5.8 5.8 5.9 5.8 5.8 5.8 5.9 5.9 5.9 5.9 5.8 5.9 5.8 5.8 5.8 6.0 5.7 5.7 6.0 6.0 6.1 6.2 6.2
5.1 5.1 5.2 5.5 5.5 5.5 5.4 5.5 5.3 5.3 5.4 5.4 5.5 5.6 5.7 5.6 5.7 5.7 5.7 5.6 5.7 5.8 5.8 5.8 5.9 5.9 5.8 5.8 5.8 5.8 5.8 5.6 5.6 5.5 5.8 6.1 5.9 5.8 5.9 6.2 6.3 6.1 6.1
5.2 5.2 5.2 5.2 5.5 5.5 5.4 5.5 5.5 5.4 5.4 5.4 5.5 5.5 5.5 5.5 5.6 5.5 5.6 5.5 5.7 5.7 5.7 5.7 5.6 5.9 5.9 5.9 5.9 5.8 5.7 5.8 5.7 5.9 5.5 5.7 5.9 5.9 6.0 6.1 6.1 6.3 6.2
5.0 4.9 5.2 5.3 5.5 5.5 5.5 5.6 5.5 5.4 5.5 5.4 5.5 5.5 5.5 5.5 5.5 5.5 5.6 5.5 5.6 5.7 5.7 5.6 5.5 5.6 5.4 5.8 5.9 5.9 5.9 5.7 6.1 6.0 5.7 6.0 6.0 6.1 5.9 6.0 6.1 6.1 6.1
5.3 5.3 5.5 5.5 5.6 5.5 5.6 5.6 5.5 5.5 5.5 5.5 5.5 5.5 5.4 5.5 5.5 5.6 5.6 5.6 5.6 5.6 5.4 5.4 5.3 5.1 5.1 5.5 5.6 5.8 5.9 5.8 6.2 6.2 5.7 5.9 6.1 6.0 6.0 6.0 6.0 5.9 6.0
5.1 5.6 5.6 5.7 5.7 5.7 5.6 5.7 5.6 5.7 5.7 5.6 5.6 5.5 5.3 5.5 5.5 5.4 5.6 5.6 5.6 5.4 5.3 5.1 5.3 5.0 4.8 5.1 5.4 5.4 5.5 5.6 6.0 5.8 5.4 5.5 5.7 5.9 5.9 6.1 5.9 5.8 5.8
5.9 5.9 5.7 5.9 5.9 5.8 5.8 5.8 5.9 5.8 5.7 5.8 5.6 5.5 5.5 5.5 5.5 5.5 5.4 5.5 5.5 5.4 5.4 5.3 5.3 5.2 5.1 5.2 5.3 5.3 5.4 5.1 5.4 5.4 5.3 5.5 5.5 5.7 5.8 5.9 6.1 5.9 5.8
6.2 6.0 5.9 6.2 5.8 5.9 5.8 5.7 5.8 5.8 5.9 5.7 5.6 5.4 5.5 5.4 5.6 5.6 5.4 5.5 5.5 5.4 5.4 5.3 5.4 5.3 5.2 5.3 5.3 4.8 4.7 4.7 4.9 5.0 5.0 5.2 5.4 5.4 5.4 6.2 6.1 6.0 5.8
5.8 6.3 6.2 6.4 6.1 6.2 6.1 5.7 5.9 5.6 5.7 5.8 5.8 5.6 5.4 5.5 5.6 5.5 5.2 5.3 5.4 5.3 5.3 5.2 5.3 5.5 5.2 5.1 5.0 5.1 5.1 4.9 5.0 4.8 4.8 4.7 5.0 5.1 5.1 5.7 5.7 5.8 5.7
5.5 5.2 6.2 6.2 6.3 6.1 5.7 6.3 5.6 5.5 5.7 5.3 5.7 5.7 5.7 5.3 4.9 5.3 5.3 5.4 5.2 5.3 5.2 5.0 5.3 5.4 5.1 5.0 4.9 4.8 5.3 5.6 5.2 5.1 5.1 5.3 4.9 4.7 5.0 5.1 5.8 5.6 5.7
5.5 5.7 5.3 5.9 6.0 6.0 5.8 5.9 4.8 5.0 4.9 5.2 5.7 5.7 5.8 5.2 5.1 5.3 5.0 5.1 4.9 5.5 5.5 5.3 5.2 5.1 5.1 5.2 5.2 5.1 5.0 5.3 5.1 5.2 5.3 5.4 5.3 5.1 4.8 4.9 5.1 5.5 5.4
5.5 5.7 5.4 6.1 6.1 6.1 6.0 6.0 5.8 5.4 5.2 5.2 5.7 5.6 5.6 5.6 5.3 5.3 5.3 5.3 5.0 5.0 5.1 5.1 5.7 5.5 5.2 5.6 5.6 5.4 5.4 5.3 5.4 5.3 5.2 5.3 5.5 5.2 5.5 4.9 5.1 5.3 5.4
5.4 5.4 6.2 6.2 6.2 6.2 6.1 5.9 5.8 5.7 5.3 5.2 5.5 5.3 5.3 5.3 5.4 5.3 5.1 5.2 4.9 4.8 5.3 5.4 5.2 5.7 5.1 5.6 5.7 5.4 5.4 5.3 5.5 5.8 5.5 5.4 5.6 5.5 5.4 5.1 5.3 5.2 5.0
5.3 6.0 6.1 6.2 6.1 6.1 6.0 5.9 5.9 5.6 4.9 4.9 5.2 5.4 5.4 5.5 5.6 5.7 5.6 5.8 5.3 5.0 5.4 5.1 5.5 5.3 5.4 5.5 5.5 5.7 5.4 5.3 5.5 5.3 5.1 5.3 5.4 5.5 5.5 5.4 5.4 5.1 5.0
5.9 6.2 6.3 6.3 6.4 6.3 6.2 6.0 6.0 5.6 5.4 5.1 5.1 6.1 5.7 5.7 5.7 5.6 5.5 5.5 5.4 5.2 5.8 5.7 5.9 5.5 5.4 5.4 5.7 5.7 5.6 5.1 5.7 5.3 5.4 5.6 5.6 5.4 5.3 5.5 5.6 5.5 5.4
6.3 6.3 6.3 6.2 6.2 6.2 6.3 6.2 6.3 6.0 5.8 5.7 5.7 6.3 6.2 5.9 5.9 5.9 5.9 6.2 5.5 5.4 5.6 5.8 5.8 5.8 5.6 5.4 5.5 5.6 5.6 5.4 5.4 5.4 5.3 5.7 5.6 5.8 5.7 5.5 5.5 5.4 5.1
6.1 6.3 6.4 6.5 6.5 6.5 6.6 6.6 6.6 6.7 6.5 6.3 6.0 6.3 5.7 6.1 6.1 6.0 6.1 6.0 5.8 5.7 5.8 5.8 5.9 6.0 5.9 6.0 5.9 5.7 5.8 5.3 5.1 4.9 5.5 5.7 5.8 6.0 5.5 5.6 5.5 5.4 5.4
6.3 6.6 6.5 6.5 6.6 6.7 6.8 6.9 7.0 6.8 6.8 6.6 6.5 6.3 6.3 6.1 6.0 5.9 6.0 6.2 6.1 6.1 6.0 6.0 6.1 6.0 6.1 6.1 6.1 5.9 5.7 5.4 4.9 5.0 5.4 5.4 5.7 6.0 5.5 5.6 5.6 5.3 5.2
5.9 6.8 6.9 6.8 6.8 6.9 6.9 6.8 6.8 6.7 6.6 6.5 6.5 6.4 6.3 6.3 6.4 6.3 6.2 6.5 6.4 6.4 6.3 6.3 5.9 6.0 6.0 5.9 5.9 5.8 5.6 5.6 5.2 5.2 5.6 5.5 5.4 5.0 5.4 6.0 5.8 5.6 5.2
6.4 7.2 7.3 7.1 7.0 6.9 6.9 6.8 6.8 6.7 6.7 6.6 6.7 6.7 6.7 6.4 6.5 6.5 6.5 6.2 6.2 6.2 6.2 6.3 6.4 6.2 6.2 6.1 5.8 5.9 5.9 6.0 5.9 5.6 5.4 5.2 5.5 5.7 5.4 5.6 5.8 5.8 5.5
6.7 7.2 7.6 7.6 7.6 7.6 7.4 7.2 7.2 7.2 7.3 7.3 7.0 6.8 6.8 6.9 6.9 6.8 6.7 6.7 6.5 6.3 6.1 6.1 6.0 6.2 6.2 6.2 6.1 6.0 6.0 5.9 5.9 5.6 5.7 4.9 5.0 5.0 5.4 5.9 5.6 5.3 5.7
6.5 6.8 7.8 7.8 7.9 7.8 7.6 7.3 7.2 7.2 7.3 7.3 7.2 7.3 7.4 7.3 7.2 7.2 7.0 6.9 6.7 6.6 6.4 6.3 6.3 6.3 6.5 6.6 6.6 6.6 6.5 6.1 5.7 5.6 5.4 5.3 5.0 5.0 5.1 5.4 5.8 5.0 5.3
Wind_Speed
10 16 12 11 11 10 10 11 13 13 11 10 9 9 9 11 10 10 12 11 11 12 12 13 12 12 11 12 12 13 12 12 14 16 17 16 14 11 9 9 14 16 14
18 19 13 12 11 11 11 10 11 11 10 9 8 8 9 10 10 10 12 11 12 11 12 14 13 12 11 11 12 10 9 8 11 14 15 14 12 9 5 3 19 14 12
18 19 15 13 11 11 10 9 9 10 8 8 7 7 9 9 10 11 11 11 12 12 12 13 13 13 12 11 10 8 7 6 6 8 16 15 13 11 12 13 16 13 12
22 21 17 13 10 11 11 9 9 9 10 8 8 9 9 9 9 11 12 12 12 11 13 13 13 13 12 10 7 6 5 4 6 3 6 5 14 10 10 12 12 11 12
22 23 18 13 10 9 10 10 12 10 10 8 8 9 9 10 11 11 10 12 11 12 11 12 13 12 11 9 6 4 4 3 5 6 3 3 16 11 9 9 10 10 10
15 21 18 14 12 10 10 10 10 10 9 9 10 11 10 9 10 10 10 11 10 10 10 10 9 8 8 7 6 3 1 3 6 13 7 22 17 12 7 2 9 9 10
14 19 17 14 12 11 10 10 10 10 9 8 10 11 10 10 12 10 9 10 11 10 10 8 6 5 5 6 6 3 3 5 5 12 16 16 13 11 7 7 8 8 8
11 20 17 14 13 11 11 10 10 10 10 9 11 10 11 9 11 10 9 10 9 10 8 7 4 3 4 4 5 4 5 5 2 14 15 13 14 9 7 7 7 7 5
19 20 17 15 14 12 11 11 12 11 11 12 12 12 11 11 10 9 8 9 8 8 8 6 7 6 8 6 4 5 7 8 7 14 16 13 12 10 7 8 6 6 5
13 17 15 16 15 15 12 12 12 11 12 12 12 12 12 11 11 10 9 9 8 6 6 6 6 8 5 5 5 6 7 10 14 13 13 13 14 8 7 7 6 5 4
11 12 14 15 17 15 14 12 12 12 12 13 12 12 11 11 13 13 8 10 8 8 6 5 6 13 12 8 4 5 8 7 8 13 13 14 13 9 4 5 6 5 5
13 13 14 12 17 18 15 16 15 15 13 14 15 13 13 10 12 10 12 10 10 10 9 9 8 16 9 13 12 8 5 19 13 7 11 11 9 8 5 4 5 6 6
15 12 14 12 12 14 13 14 13 15 14 16 13 19 12 10 13 12 11 11 12 13 12 13 13 15 9 13 12 4 11 8 8 4 6 12 8 5 4 3 4 5 6
18 15 17 14 8 11 9 11 14 12 16 12 12 14 11 6 9 10 8 10 13 8 11 13 10 16 19 15 9 3 5 9 11 14 6 11 6 6 6 3 3 5 5
10 10 14 10 2 4 5 8 9 8 9 15 15 13 9 8 4 11 10 9 6 9 12 9 10 6 6 3 3 4 4 12 13 13 7 7 10 6 6 4 3 4 5
13 14 14 13 5 6 5 2 4 4 7 12 11 11 3 5 6 8 6 6 8 12 17 15 7 5 3 4 3 6 5 9 16 14 11 11 11 10 9 9 8 5 6
10 11 13 12 11 8 4 2 5 7 5 5 12 11 3 6 2 6 4 1 4 4 6 10 11 8 5 6 5 5 7 9 6 6 11 12 13 13 15 14 11 9 6
10 10 11 12 14 11 9 6 7 7 6 5 12 13 11 7 4 2 3 2 4 6 5 4 5 6 5 4 4 6 6 11 10 13 12 14 12 15 18 19 16 11 5
12 9 9 6 13 11 7 8 8 9 3 2 11 13 13 13 12 7 4 6 10 7 4 4 2 4 4 4 4 6 7 8 7 14 16 19 17 18 17 21 22 20 19
13 11 8 5 8 8 6 3 6 3 4 8 7 10 13 11 12 11 7 5 8 4 3 2 2 5 3 4 5 7 6 8 2 9 9 14 16 19 18 19 22 20 22
14 13 11 9 8 7 7 6 5 4 4 3 4 15 14 9 13 12 6 5 6 6 4 1 4 5 5 4 2 5 8 8 7 4 7 7 12 19 20 21 19 19 20
16 15 13 11 10 7 6 7 6 4 8 8 7 7 11 8 5 6 5 3 5 5 5 5 4 4 5 5 4 3 3 2 4 6 7 6 10 15 15 20 20 20 18
16 16 15 14 13 11 9 5 2 3 1 1 4 5 8 12 11 9 6 5 4 4 5 6 6 6 5 5 8 2 3 1 3 3 7 10 12 11 10 18 22 22 21
15 16 15 15 14 12 11 7 6 5 5 5 5 6 6 12 11 14 12 10 5 5 5 5 6 5 5 6 4 4 4 2 1 3 2 4 7 9 13 10 13 19 22
16 16 15 16 14 13 12 10 8 7 6 3 3 4 3 5 9 8 9 9 8 6 8 6 5 5 4 4 5 6 3 2 4 4 4 4 2 5 6 9 9 13 22
16 16 16 16 15 14 13 13 10 9 8 4 5 3 4 6 8 9 11 7 6 6 6 5 6 7 6 5 5 5 5 4 3 4 5 7 5 5 4 3 6 4 20
Wind_Direction
187 132 140 117 107 105 89 88 95 110 114 111 98 87 75 80 80 83 89 92 94 99 108 101 98 99 91 84 80 76 79 84 84 84 85 88 90 85 98 128 125 101 105
130 135 135 117 111 101 99 95 102 108 113 111 98 88 85 85 84 89 95 97 99 105 109 103 100 98 90 103 91 93 99 103 107 111 104 92 83 64 67 138 94 111 107
127 132 127 115 111 101 103 106 107 119 123 107 97 91 96 96 96 107 110 111 109 113 105 102 100 105 101 99 106 115 114 114 128 134 144 125 99 80 85 90 109 117 115
136 135 127 121 115 103 101 104 107 114 111 110 113 108 112 108 103 109 108 108 112 118 114 111 105 108 111 108 115 124 117 149 117 162 245 287 110 98 104 103 105 121 125
138 127 129 126 114 106 101 94 94 108 112 111 113 120 116 111 115 111 109 104 110 108 104 108 107 105 109 111 113 115 133 160 149 222 198 324 117 111 111 116 129 135 140
95 120 128 122 113 105 103 100 106 105 114 114 115 120 124 125 121 109 112 114 109 105 119 114 117 106 108 117 139 149 176 273 271 252 158 75 96 119 115 125 108 115 122
145 127 123 123 117 111 108 107 111 118 121 121 119 122 128 124 115 121 121 114 116 114 109 110 110 123 116 123 147 158 223 278 315 97 84 95 111 117 117 115 116 124 127
143 115 123 121 120 113 117 119 120 125 123 121 129 128 132 123 133 130 127 120 123 110 108 94 86 145 164 158 167 196 234 265 235 110 97 102 126 121 129 129 133 126 132
126 121 136 129 121 119 126 124 125 128 135 128 131 133 132 140 135 132 130 122 131 114 107 102 90 105 160 172 200 242 248 271 273 134 123 124 127 131 134 146 136 129 125
136 125 130 134 140 143 140 135 133 141 140 143 143 147 150 150 145 146 148 139 141 130 123 104 99 97 131 171 200 255 280 303 313 105 101 128 130 133 133 144 150 152 156
130 133 139 164 152 129 139 149 152 158 154 154 156 160 170 174 172 159 143 150 157 154 157 144 127 72 1 323 258 259 282 298 359 72 97 133 129 132 156 166 171 169 182
167 160 152 165 158 159 153 162 172 166 171 183 176 176 205 187 176 156 158 162 174 175 182 174 146 138 191 264 278 232 340 0 83 89 122 117 111 125 145 191 203 201 194
162 156 162 179 165 165 157 174 183 169 175 180 196 182 204 173 171 156 155 178 189 193 194 185 180 158 181 229 242 75 125 124 331 55 165 109 103 114 136 178 200 220 213
159 170 164 162 163 160 179 195 173 180 190 160 151 172 215 190 182 154 198 199 185 191 201 207 193 155 185 189 204 187 150 168 208 195 210 116 129 151 147 169 214 224 232
148 164 154 143 191 133 178 232 161 167 148 139 168 186 206 193 223 156 209 199 169 89 8 327 127 152 173 194 226 237 252 170 186 209 221 191 180 173 175 149 225 215 230
163 165 132 145 168 141 227 351 86 170 226 157 172 148 130 179 230 181 189 190 178 139 173 244 166 176 218 211 248 240 255 277 168 187 209 229 215 206 204 190 200 214 226
166 159 133 145 172 148 170 214 252 216 187 108 117 125 117 327 140 351 13 205 161 230 123 227 131 262 226 227 219 235 244 247 202 179 272 206 207 217 217 212 201 208 195
171 142 150 173 164 169 168 193 237 226 157 186 157 149 160 191 172 257 333 321 243 239 209 186 197 202 237 250 212 235 231 223 196 182 224 247 211 202 220 219 214 212 215
131 147 163 207 165 162 150 166 245 213 115 183 149 159 176 193 180 201 246 273 265 199 185 230 203 182 212 243 251 230 222 236 182 193 207 220 206 195 207 216 212 210 216
142 156 167 181 125 149 133 207 217 216 205 181 171 157 179 202 181 188 222 239 272 268 192 234 259 272 241 228 257 280 235 228 131 203 194 205 208 195 204 205 209 210 210
154 160 170 182 149 157 162 209 220 180 192 185 185 156 184 204 192 195 207 227 203 270 262 219 260 257 262 210 226 265 261 206 210 213 186 207 210 201 208 200 191 204 207
166 168 169 185 166 185 200 203 214 212 188 187 203 190 185 203 213 205 227 237 215 264 195 222 227 286 266 222 210 240 311 290 203 175 190 206 201 200 204 196 204 196 194
174 173 174 180 177 190 209 206 229 321 5 291 163 177 207 184 191 226 217 229 259 256 268 200 217 234 273 301 238 183 329 175 321 193 171 202 212 201 201 201 201 198 194
187 176 176 181 181 189 215 199 201 194 223 212 209 207 218 178 199 203 210 211 211 254 278 264 238 239 245 280 303 245 281 267 208 307 232 199 199 199 199 199 198 196 200
185 179 178 179 185 191 197 225 188 222 227 256 223 152 150 183 197 215 214 196 201 212 248 253 261 231 242 256 271 303 289 259 231 229 256 277 268 232 215 201 196 197 177
179 184 178 173 183 194 188 206 237 196 231 248 207 205 185 205 212 212 210 207 206 218 254 265 270 264 266 267 278 285 272 259 272 233 240 255 252 271 284 219 212 174 174